Regional Weather Roundup
Issued by NWS

Home | Current Version | Previous Version | Graphics & Text | Print | Product List | Glossary On
Versions: 1 2 3 4 5 6 7 8 9 10 11 12 13 14 15 16 17 18 19 20 21 22 23 24 25 26 27 28 29 30 31 32 33 34 35 36 37 38 39 40 41 42 43 44 45 46 47 48 49 50
390
ASUS43 KDMX 201006
RWRIA

WEATHER ROUNDUP FOR IOWA
NATIONAL WEATHER SERVICE DES MOINES IA
500 AM CDT THU JUL 20 2017

NOTE: "FAIR" INDICATES FEW OR NO CLOUDS BELOW 12,000 FEET WITH NO
SIGNIFICANT WEATHER AND/OR OBSTRUCTIONS TO VISIBILITY.

* - THESE STATIONS ARE NOT NWS STATIONS...THUS NOT UNDER NWS
QUALITY CONTROL.  THEY ALSO DO NOT REPORT WEATHER SUCH
AS PRECIPITATION OR FOG.

IAZ001>003-012>014-020>022-031>034-043>046-201100-
   NORTHWEST IOWA

CITY           SKY/WX    TMP DP  RH WIND       PRES   REMARKS
CARROLL *      CLOUDY    77  73  88 SW6       29.92F
CHEROKEE *     MOCLDY    77  75  95 N6        29.92S
DENISON *      CLOUDY    77  72  83 S5        29.94S
ORANGE CITY *  MOCLDY    73  70  88 NE5       29.95R
SHELDON *      CLOUDY    70  64  83 CALM      29.94R
SIOUX CITY     PTCLDY    81  75  82 N3        29.92R HX  87
SPENCER        PTCLDY    71  68  90 N3        29.95S
STORM LAKE *   CLOUDY    75  73  94 N5        29.94R
$$

IAZ055>058-069>071-079>083-090>094-201100-
   SOUTHWEST IOWA

CITY           SKY/WX    TMP DP  RH WIND       PRES   REMARKS
ATLANTIC *     PTCLDY    73  72  94 S5        29.97F
AUDUBON *      MOCLDY    77  72  83 S9        29.95F
CLARINDA *     PTCLDY    75  72  88 S6        29.98F
COUNCIL BLFS * CLEAR     79  72  78 S8        29.96F HX  82
CRESTON *      PTCLDY    77  72  83 SW10      29.99F
HARLAN  *      CLOUDY    75  73  94 SW5       29.98F
LAMONI         PTCLDY    76  72  87 S8        29.99S
RED OAK *      CLEAR     75  73  94 CALM      29.97R
SHENANDOAH *   CLOUDY    75  72  88 CALM      29.96S
$$

IAZ047>049-059>061-072>074-084-201100-
   CENTRAL IOWA

CITY           SKY/WX    TMP DP  RH WIND       PRES   REMARKS
AMES           MOCLDY    79  74  84 S8        29.91F HX  82
ANKENY *       PTCLDY    82  72  69 W9        29.95R HX  87
BOONE *        PTCLDY    79  73  83 SW7       29.92F HX  82
CHARITON *     PTCLDY    81  72  74 SW10G16   29.96S HX  84
DES MOINES     MOCLDY    82  71  69 SW12      29.92F HX  86
GRINNELL*      PTCLDY    79  71  77 SW9       29.95S HX  82
KNOXVILLE *    CLOUDY    81  70  69 SW9       29.93F HX  84
MARSHALLTOWN   CLOUDY    77  75  93 SW5       29.93R
NEWTON *       CLOUDY    79  72  78 SW10      29.94S HX  82
PELLA *        CLOUDY    81  70  68 SW9       29.95S HX  85
PERRY *          N/A     76  73  92 S7        29.94F
$$

IAZ004>006-015-016-023>025-035-036-201100-
   NORTH CENTRAL IOWA

CITY           SKY/WX    TMP DP  RH WIND       PRES   REMARKS
ALGONA *       CLOUDY    73  72  94 N6        29.94R
CLARION *      PTCLDY    77  77 100 S7        29.91S
ESTHERVILLE    CLOUDY    67  67 100 NW5       29.95R
FORT DODGE *   PTCLDY    77  72  83 CALM      29.92S
MASON CITY     CLOUDY    73  70  90 N3        29.95R
FOREST CITY *    N/A     72  70  94 N3        29.94R
WEBSTER CITY * CLOUDY    75  73  94 SW5       29.89F
IOWA FALLS *     N/A     75  73  96 S3        29.93S FOG
$$

IAZ007>011-017>019-026>030-037>042-050>054-066-201100-
   NORTHEAST IOWA

CITY           SKY/WX    TMP DP  RH WIND       PRES   REMARKS
CEDAR RAPIDS   CLOUDY    76  76 100 S8        29.93R
CHARLES CITY * MOCLDY    75  75 100 N9        29.95R
CLINTON *      CLOUDY    73  71  93 SE6       29.94F
DECORAH *      CLOUDY    68  66  94 E14G22    29.97S
DUBUQUE        CLOUDY    68  66  93 SE13      29.94F
MONTICELLO *   CLOUDY    75  73  94 CALM      29.93F
OELWEIN *      CLOUDY    73  73 100 SE6       29.94R
WATERLOO       CLOUDY    77  73  87 SW9       29.90F
$$

IAZ064-065-067-068-078-201100-
   EAST CENTRAL IOWA

CITY           SKY/WX    TMP DP  RH WIND       PRES   REMARKS
DAVENPORT      CLOUDY    78  71  79 S10       29.96F HX  80
IOWA CITY      CLOUDY    80  74  81 S7        29.95R HX  85
MT. PLEASANT * CLOUDY    78  70  76 SW9       29.97R HX  80
MUSCATINE *    CLOUDY    81  73  78 SW12      29.94S HX  85
QUAD CITIES    PTCLDY    78  71  79 S7        29.94F HX  80
$$

IAZ062-063-075>077-085>089-095>099-201100-
   SOUTHEAST IOWA

CITY           SKY/WX    TMP DP  RH WIND       PRES   REMARKS
BURLINGTON     CLOUDY    78  73  84 SW9       29.96F HX  81
FAIRFIELD *    CLOUDY    79  72  78 SW9       29.95F HX  82
FORT MADISON * CLOUDY    81  73  78 S10       29.97F HX  85
KEOKUK *       PTCLDY    79  72  78 SW9       29.97F HX  82
OSKALOOSA *      N/A     79  71  77 SW8       29.96S HX  82
CENTERVILLE *    N/A     79  72  78 SW12      29.99F HX  82
OTTUMWA        PTCLDY    80  73  79 SW9       29.95F HX  84
WASHINGTON *   PTCLDY    79  75  89 SW8G14    29.96S HX  82
$$

ABBREVIATIONS USED IN REMARKS
   TC - TEMPERATURES IN CELSIUS
  WCI - WIND CHILL INDEX
   HX - HEAT INDEX
  VSB - VISIBILITY
$$





USA.gov is the U.S. government's official web portal to all federal, state and local government web resources and services.